Regional Weather Roundup
Issued by NWS Lake Charles, LA

Home | Current Version | Previous Version | Text Only | Print | Product List | Glossary On
Versions: 1 2 3 4 5 6 7 8 9 10 11 12 13 14 15 16 17 18 19 20 21 22 23 24 25 26 27 28 29 30 31 32 33 34 35 36 37 38 39 40 41 42 43 44 45 46 47 48 49 50
000
ASUS44 KLCH 310810
RWRLCH
RWRLCH
REGIONAL WEATHER ROUNDUP
NATIONAL WEATHER SERVICE LAKE CHARLES LA
300 AM CDT MON AUG 31 2015

Note: "fair" indicates few or no clouds below 12,000 feet with no
significant weather and/or obstructions to visibility.


ACROSS SOUTHEAST TEXAS

CITY           SKY/WX    TMP DP  RH WIND       PRES   REMARKS
BEAUMONT       CLEAR     70  69  97 CALM      29.97F FOG
BEAUMONT CITY    N/A     69  67  96 CALM      29.98F
ORANGE         SUNNY    N/A N/A N/A CALM      30.00F FOG
JASPER         PTCLDY    70  68  96 CALM      30.01F FOG
$$

ACROSS CENTRAL LOUISIANA

CITY           SKY/WX    TMP DP  RH WIND       PRES   REMARKS
LEESVILLE      PTCLDY    69  67  92 NE3       29.99S
FULLERTON        N/A     67  65  93 CALM      29.98F
ALEXANDRIA INT PTCLDY    70  67  90 CALM      29.98F
ESLER FIELD    PTCLDY    70  66  87 CALM      30.00F
DERIDDER       CLOUDY    69  67  94 CALM      30.01F
OAKDALE          N/A     65  64  96 CALM      30.00S FOG
OPELOUSAS        N/A     71  70  99 CALM      30.00S
$$

ACROSS SOUTHWEST AND SOUTH CENTRAL LOUISIANA

CITY           SKY/WX    TMP DP  RH WIND       PRES   REMARKS
SULPHUR        SUNNY     70  69  98 CALM      29.99S
LAKE CHARLES   CLEAR     71  68  90 CALM      29.98F
CHENNAULT INT  CLEAR     70  69  97 CALM      29.99S
CAMERON PHI    SUNNY     82  70  65 S6        30.01F
DEQUINCY         N/A     66  66 100 CALM      29.99F
JENNINGS         N/A     73  71  93 CALM      29.99S
LAFAYETTE      PTCLDY    75  73  93 CALM      30.00F
NEW IBERIA     PTCLDY    74  71  91 CALM      30.01S
ABBEVILLE      PTSUNNY   71  71 100 CALM      30.00S FOG
PATTERSON      CLEAR     73  70  88 CALM      30.01F
SALT POINT       N/A     77  75  93 CALM      29.98F
$$

SELECTED SITES ACROSS THE REGION

CITY           SKY/WX    TMP DP  RH WIND       PRES   REMARKS
HOUSTON BUSH   PTCLDY    73  69  87 CALM      29.98S
HOUSTON HOBBY  PTCLDY    75  69  81 SE3       29.97F
GALVESTON      CLEAR     81  71  71 S8        29.98F
COLLEGE STAT   PTCLDY    74  70  87 SE5       29.98S
CONROE         CLEAR     68  66  93 CALM      29.99S
HUNTSVILLE     PTCLDY    75  68  78 S3        29.99S
LUFKIN         PTCLDY    68  65  90 CALM      29.98F
SHREVEPORT     PTCLDY    73  66  78 CALM      29.98S
MONROE         PTCLDY    75  66  73 S5        29.99S
NATCHEZ MS     PTCLDY    70  64  83 S5        30.02S
BATON ROUGE    CLEAR     73  70  90 CALM      30.00F
N.O. INTL ARPT PTCLDY    77  69  76 CALM      30.00F
SLIDELL        CLEAR     70  69  97 CALM      30.00F
$$

MARINE REPORTS

STATION/POSITION TIME  TEMP    WIND        PRES    VSBY  WAVE
                       AIR SEA DIR/SP/G                  HT/PER
                 (UTC) (F)     (DEG/KT/KT) (MB)    (MI)  (FT/S)
BUOY 30 S HIGH I 0750   84 85  160/  6/  8 1014.6F         1/ 6
SEA RIM ST PARK  0800   82     180/  5/  5 1015.6F
PORT ARTHUR      NOT AVBL
SABINE PASS N    NOT AVBL
TEXAS POINT      NOT AVBL
CALCASIEU PASS   NOT AVBL
LK CHARLES BEACH NOT AVBL
MARSH ISLAND     0700   84     180/  6/ 10   N/A           0
FRESH WATER LOCK NOT AVBL
AMERADA PASS     NOT AVBL
$$


USA.gov is the U.S. government's official web portal to all federal, state and local government web resources and services.